TimeEDT,TemperatureF,Dew PointF,Humidity,Sea Level PressureIn,VisibilityMPH,Wind Direction,Wind SpeedMPH,Gust SpeedMPH,PrecipitationIn,Events,Conditions,WindDirDegrees,DateUTC
12:53 AM,52.0,30.9,45,29.79,10.0,WSW,8.1,-,N/A,,Clear,250,2012-10-30 04:53:00
1:53 AM,51.1,28.9,43,29.78,10.0,West,8.1,-,N/A,,Clear,280,2012-10-30 05:53:00
2:53 AM,51.1,28.0,41,29.78,10.0,West,11.5,-,N/A,,Clear,280,2012-10-30 06:53:00
3:53 AM,50.0,27.0,41,29.77,10.0,West,12.7,-,N/A,,Clear,280,2012-10-30 07:53:00
4:53 AM,46.0,30.9,56,29.78,10.0,WSW,9.2,-,N/A,,Clear,250,2012-10-30 08:53:00
5:53 AM,45.0,30.9,58,29.78,10.0,West,6.9,-,N/A,,Clear,260,2012-10-30 09:53:00
6:53 AM,44.1,30.9,60,29.80,10.0,West,8.1,-,N/A,,Clear,260,2012-10-30 10:53:00
7:53 AM,44.1,30.9,60,29.82,10.0,West,9.2,-,N/A,,Partly Cloudy,260,2012-10-30 11:53:00
8:53 AM,45.0,30.0,56,29.83,10.0,WSW,15.0,19.6,N/A,,Partly Cloudy,250,2012-10-30 12:53:00
9:53 AM,48.9,30.0,48,29.83,10.0,West,13.8,19.6,N/A,,Clear,280,2012-10-30 13:53:00
10:53 AM,53.1,27.0,37,29.82,10.0,West,15.0,24.2,N/A,,Clear,270,2012-10-30 14:53:00
11:53 AM,57.0,26.1,30,29.81,10.0,West,18.4,27.6,N/A,,Clear,280,2012-10-30 15:53:00
12:53 PM,59.0,25.0,27,29.80,10.0,West,18.4,25.3,N/A,,Clear,260,2012-10-30 16:53:00
1:53 PM,62.1,21.9,21,29.77,10.0,West,21.9,31.1,N/A,,Partly Cloudy,270,2012-10-30 17:53:00
2:53 PM,64.0,24.1,22,29.75,10.0,West,17.3,29.9,N/A,,Partly Cloudy,270,2012-10-30 18:53:00
3:53 PM,64.0,24.1,22,29.75,10.0,West,18.4,28.8,N/A,,Partly Cloudy,260,2012-10-30 19:53:00
4:53 PM,64.9,26.1,23,29.76,10.0,WSW,23.0,31.1,N/A,,Partly Cloudy,250,2012-10-30 20:53:00
5:53 PM,64.0,25.0,23,29.77,10.0,West,20.7,29.9,N/A,,Partly Cloudy,260,2012-10-30 21:53:00
6:53 PM,61.0,28.0,29,29.79,10.0,West,13.8,19.6,N/A,,Partly Cloudy,260,2012-10-30 22:53:00
7:53 PM,59.0,28.9,32,29.82,10.0,WSW,9.2,-,N/A,,Clear,250,2012-10-30 23:53:00
8:53 PM,57.0,30.9,37,29.84,10.0,WSW,9.2,-,N/A,,Clear,250,2012-10-31 00:53:00
9:53 PM,54.0,33.1,45,29.88,10.0,West,9.2,-,N/A,,Clear,260,2012-10-31 01:53:00
10:53 PM,53.1,33.1,47,29.90,10.0,West,6.9,-,N/A,,Partly Cloudy,260,2012-10-31 02:53:00
11:53 PM,55.0,32.0,42,29.91,10.0,West,11.5,-,N/A,,Clear,270,2012-10-31 03:53:00